2023/03/09 00:00:00,94.2, 3.0
2023/03/09 00:10:00,93.9, 3.1
2023/03/09 00:20:00,93.6, 3.2
2023/03/09 00:30:00,93.3, 3.0
2023/03/09 00:40:00,93.3, 3.1
2023/03/09 00:50:00,93.2, 3.0
2023/03/09 01:00:00,93.1, 3.2
2023/03/09 01:10:00,93.1, 2.5
2023/03/09 01:20:00,93.0, 2.4
2023/03/09 01:30:00,92.9, 2.5
2023/03/09 01:40:00,92.8, 2.5
2023/03/09 01:50:00,92.8, 2.6
2023/03/09 02:00:00,92.7, 2.7
2023/03/09 02:10:00,92.7, 3.2
2023/03/09 02:20:00,92.7, 2.8
2023/03/09 02:30:00,92.7, 3.2
2023/03/09 02:40:00,92.8, 2.9
2023/03/09 02:50:00,92.7, 3.5
2023/03/09 03:00:00,92.8, 3.2
2023/03/09 03:10:00,92.5, 3.2
2023/03/09 03:20:00,92.6, 3.2
2023/03/09 03:30:00,92.5, 3.2
2023/03/09 03:40:00,92.6, 3.5
2023/03/09 03:50:00,92.6, 3.2
2023/03/09 04:00:00,92.6, 3.2
2023/03/09 04:10:00,92.7, 3.4
2023/03/09 04:20:00,92.7, 3.0
2023/03/09 04:30:00,92.7, 3.3
2023/03/09 04:40:00,92.7, 3.4
2023/03/09 04:50:00,92.7, 2.9
2023/03/09 05:00:00,92.8, 3.0
2023/03/09 05:10:00,92.8, 3.0
2023/03/09 05:20:00,92.8, 2.5
2023/03/09 05:30:00,92.9, 2.7
2023/03/09 05:40:00,92.9, 2.9
2023/03/09 05:50:00,92.9, 3.1
2023/03/09 06:00:00,93.0, 2.8
2023/03/09 06:10:00,93.0, 2.9
2023/03/09 06:20:00,93.0, 2.5
2023/03/09 06:30:00,92.9, 2.8
2023/03/09 06:40:00,93.0, 2.4
2023/03/09 06:50:00,93.0, 2.7
2023/03/09 07:00:00,93.1, 3.2
2023/03/09 07:10:00,93.0, 2.9
2023/03/09 07:20:00,93.0, 3.1
2023/03/09 07:30:00,93.1, 3.3
2023/03/09 07:40:00,93.0, 3.4
2023/03/09 07:50:00,93.0, 3.8
2023/03/09 08:00:00,93.1, 4.2
2023/03/09 08:10:00,93.1, 3.9
2023/03/09 08:20:00,93.1, 4.1
2023/03/09 08:30:00,93.0, 4.1
2023/03/09 08:40:00,93.0, 4.4
2023/03/09 08:50:00,93.0, 4.2
2023/03/09 09:00:00,93.0, 4.5
2023/03/09 09:10:00,93.0, 5.1
2023/03/09 09:20:00,93.2, 5.8
2023/03/09 09:30:00,93.2, 6.0
2023/03/09 09:40:00,93.3, 6.0
2023/03/09 09:50:00,93.3, 6.2
2023/03/09 10:00:00,93.2, 6.0
2023/03/09 10:10:00,93.3, 6.8
2023/03/09 10:20:00,93.2, 7.4
2023/03/09 10:30:00,93.1, 7.7
2023/03/09 10:40:00,93.3, 9.2
2023/03/09 10:50:00,129.4, 9.7
2023/03/09 11:00:00,143.8, 9.6
2023/03/09 11:10:00,143.6, 9.6
2023/03/09 11:20:00,128.9, 9.6
2023/03/09 11:30:00,92.4, 9.3
2023/03/09 11:40:00,92.3, 8.9
2023/03/09 11:50:00,92.4, 8.3
2023/03/09 12:00:00,92.3, 9.5
2023/03/09 12:10:00,91.8, 8.9
2023/03/09 12:20:00,91.8, 8.4
2023/03/09 12:30:00,91.8, 8.3
2023/03/09 12:40:00,91.6, 8.1
2023/03/09 12:50:00,91.3, 7.8
2023/03/09 13:00:00,91.3, 8.1
2023/03/09 13:10:00,91.1, 8.6
2023/03/09 13:20:00,91.0, 9.2
2023/03/09 13:30:00,90.9, 9.6
2023/03/09 13:40:00,90.6, 9.9
2023/03/09 13:50:00,90.5, 9.9
2023/03/09 14:00:00,90.5,10.0
2023/03/09 14:10:00,90.7, 9.8
2023/03/09 14:20:00,90.3, 8.9
2023/03/09 14:30:00,90.2, 8.6
2023/03/09 14:40:00,90.3, 8.6
2023/03/09 14:50:00,90.2, 8.3
2023/03/09 15:00:00,90.3, 7.9
2023/03/09 15:10:00,90.3, 7.7
2023/03/09 15:20:00,90.3, 7.3
2023/03/09 15:30:00,90.2, 6.6
2023/03/09 15:40:00,90.1, 6.4
2023/03/09 15:50:00,89.9, 6.7
2023/03/09 16:00:00,90.0, 6.2
2023/03/09 16:10:00,90.0, 6.0
2023/03/09 16:20:00,89.7, 6.1
2023/03/09 16:30:00,89.5, 5.7
2023/03/09 16:40:00,89.5, 5.4
2023/03/09 16:50:00,89.4, 5.1
2023/03/09 17:00:00,89.4, 5.0
2023/03/09 17:10:00,89.4, 5.1
2023/03/09 17:20:00,89.4, 5.3
2023/03/09 17:30:00,89.4, 5.0
2023/03/09 17:40:00,89.4, 4.8
2023/03/09 17:50:00,89.4, 4.7
2023/03/09 18:00:00,89.5, 4.7
2023/03/09 18:10:00,89.5, 4.3
2023/03/09 18:20:00,89.4, 4.4
2023/03/09 18:30:00,89.2, 3.6
2023/03/09 18:40:00,89.0, 4.4
2023/03/09 18:50:00,88.7, 4.0
2023/03/09 19:00:00,88.6, 3.8
2023/03/09 19:10:00,88.7, 4.3
2023/03/09 19:20:00,88.7, 4.4
2023/03/09 19:30:00,88.7, 4.3
2023/03/09 19:40:00,88.6, 4.2
2023/03/09 19:50:00,88.7, 4.2
2023/03/09 20:00:00,88.8, 4.5
2023/03/09 20:10:00,89.1, 4.2
2023/03/09 20:20:00,88.9, 4.1
2023/03/09 20:30:00,88.9, 3.9
2023/03/09 20:40:00,88.9, 3.9
2023/03/09 20:50:00,88.8, 3.8
2023/03/09 21:00:00,88.6, 3.6
2023/03/09 21:10:00,88.5, 3.5
2023/03/09 21:20:00,88.5, 3.5
2023/03/09 21:30:00,88.5, 3.8
2023/03/09 21:40:00,88.5, 3.4
2023/03/09 21:50:00,88.5, 3.6
2023/03/09 22:00:00,88.5, 3.9
2023/03/09 22:10:00,88.7, 4.3
2023/03/09 22:20:00,88.8, 4.0
2023/03/09 22:30:00,88.5, 4.1
2023/03/09 22:40:00,88.5, 4.0
2023/03/09 22:50:00,88.5, 4.0
2023/03/09 23:00:00,88.4, 3.7
2023/03/09 23:10:00,88.4, 3.7
2023/03/09 23:20:00,88.3, 3.6
2023/03/09 23:30:00,88.3, 3.6
2023/03/09 23:40:00,88.3, 3.9
2023/03/09 23:50:00,88.5, 3.9
